Regional Weather Roundup
Issued by NWS

Home | Current Version | Previous Version | Text Only | Print | Product List | Glossary On
Versions: 1 2 3 4 5 6 7 8 9 10 11 12 13 14 15 16 17 18 19 20 21 22 23 24 25 26 27 28 29 30 31 32 33 34 35 36 37 38 39 40 41 42 43 44 45 46 47 48 49 50
000
ASUS45 KPSR 300310
RWRAZ

ARIZONA REGIONAL HOURLY WEATHER ROUNDUP
NATIONAL WEATHER SERVICE PHOENIX AZ
800 PM MST TUE JUL 29 2014

NOTE: FAIR INDICATES FEW OR NO CLOUDS BELOW 12,000 FEET WITH NO
SIGNIFICANT WEATHER AND/OR OBSTRUCTIONS TO VISIBILITY.

AZZ001>003-036-300400-
NORTHWEST ARIZONA

CITY           SKY/WX    TMP DP  RH WIND       PRES   REMARKS
BULLHEAD CITY  PTCLDY   104  50  16 SW9       29.79R HX 101
KINGMAN        CLEAR     90  48  23 SW12      30.02S
$$

AZZ004>008-015-016-018-300400-
NORTH CENTRAL ARIZONA

CITY           SKY/WX    TMP DP  RH WIND       PRES   REMARKS
GRAND CANYON   PTCLDY    74  49  41 W5        30.28R
WILLIAMS       PTCLDY    72  50  46 CALM      30.35S
PRESCOTT       CLEAR     81  49  32 W7        30.16R
FLAGSTAFF      PTCLDY    71  49  45 W5        30.32R
PAYSON         CLEAR     82  48  30 W6        30.19R
PAGE           PTCLDY    88  51  28 NW8       30.06R
$$

AZZ009>014-017-300400-
NORTHEAST ARIZONA

CITY           SKY/WX    TMP DP  RH WIND       PRES   REMARKS
WINSLOW        PTCLDY    85  49  28 W14       30.13R
SAINT JOHNS    PTCLDY    80  48  32 SW12      30.18R
WINDOW ROCK    PTCLDY    74  44  34 S3        30.26R
SHOW LOW       PTCLDY    72  48  43 S7        30.29R
$$

AZZ023-300400-
GREATER PHOENIX AREA

CITY           SKY/WX    TMP DP  RH WIND       PRES   REMARKS
PHOENIX        MOCLDY   105  50  15 W12       29.80S HX 102
BUCKEYE          N/A     97  57  26 SW5       29.81R
GLENDALE       PTCLDY   104  50  16 S7        29.82R HX 101
LUKE AFB       NOT AVBL
DEER VALLEY    CLEAR    101  50  18 SW9       29.83R
SCOTTSDALE     CLEAR    102  51  18 SW6       29.85S
MESA-FALCON    PTCLDY   100  54  20 W7        29.83S
MESA-GATEWAY     N/A    N/A N/A N/A MISG        N/A
CHANDLER       PTCLDY   102  52  18 W9        29.83R HX 100
$$

AZZ027-028-300400-
SOUTHWEST MARICOPA COUNTY AND PINAL COUNTY

CITY           SKY/WX    TMP DP  RH WIND       PRES   REMARKS
CASA GRANDE    CLEAR    100  54  20 W5        29.86S
GILA BEND      CLEAR    102  50  17 W5        29.82R
$$

AZZ503-504-507>509-300400-
SOUTHEAST ARIZONA

CITY           SKY/WX    TMP DP  RH WIND       PRES   REMARKS
TUCSON         MOCLDY    98  51  20 N9        29.97R
DAVIS-MONTHAN  CLEAR     96  53  23 NW10      29.96R
RYAN FIELD       N/A     97  54  23 N7        29.95R
NOGALES        PTCLDY    82  57  42 E7        30.09R
SIERRA VISTA   MOCLDY    81  55  41 SW10      30.16S
DOUGLAS        PTCLDY    80  64  58 NW6       30.11R
SAFFORD        MOCLDY    92  54  27 CALM      29.97R
$$

AZZ020-021-025-026-031-300400-
SOUTHWEST ARIZONA

CITY           SKY/WX    TMP DP  RH WIND       PRES   REMARKS
YUMA           PTCLDY   105  52  17 SW5       29.77R HX 103
$$

CAZ031-033-041-043-047-048-061-300400-
SOUTHERN CALIFORNIA

CITY           SKY/WX    TMP DP  RH WIND       PRES   REMARKS
DOWNTOWN L.A.  PTCLDY    74  59  59 CALM      29.95R
L.A. AIRPORT   PTCLDY    71  63  75 SW8       29.96R
SAN DIEGO      PTCLDY    74  66  76 NW7       29.98R
BURBANK        PTCLDY    81  52  36 SE6       29.96R
ONTARIO        MOCLDY    81  51  35 SW8       29.97R
RIVERSIDE      CLEAR     83  53  35 W6        29.96R
PALM SPRINGS   CLEAR    103  46  14 NW17      29.81R
EL CENTRO NAS  PTCLDY   102  49  16 SW14      29.75R
IMPERIAL       PTCLDY   104  52  17 W13       29.74R HX 101
BLYTHE           N/A    N/A N/A N/A MISG      29.76R
NEEDLES        CLEAR    104  47  14 W16       29.81R HX 100
$$

NVZ020-UTZ003-300400-
SOUTHERN NEVADA-UTAH

CITY           SKY/WX    TMP DP  RH WIND       PRES   REMARKS
LAS VEGAS      PTCLDY    96  52  22 S6        29.88R
SALT LAKE CITY MOCLDY    71  62  73 N6        30.13R
$$

NMZ009-TXZ055-300400-
NEW MEXICO-WEST TEXAS

CITY           SKY/WX    TMP DP  RH WIND       PRES   REMARKS
ALBUQUERQUE    CLOUDY    72  64  76 SE7       30.20R
EL PASO        MOCLDY    82  63  51 CALM        N/A
$$


........................KEY........................
SKY/WX - SKY CONDITION/WEATHER
TMP    - TEMPERATURE IN FAHRENHEIT
DP     - DEW POINT IN FAHRENHEIT
RH     - RELATIVE HUMIDITY IN PERCENT
WIND   - DIRECTION AND SPEED IN MILES PER HOUR (MPH)
VRB    - VARIABLE WIND DIRECTION
PRES   - MEAN SEA LEVEL PRESSURE IN INCHES OF MERCURY
         F - FALLING PRESSURE   R - RISING PRESSURE
         S - STEADY PRESSURE
VSB    - VISIBILITY IN MILES
HX     - HEAT INDEX IN FAHRENHEIT
WCI    - WIND CHILL INDEX IN FAHRENHEIT
TC     - TEMPERATURE IN CELSIUS WHICH IS ALSO KNOWN AS
         TEMPERATURE IN CENTIGRADE
AFB    - AIR FORCE BASE
         LUKE AFB IS LUKE AIR FORCE BASE
         DAVIS-MONTHAN IS DAVIS-MONTHAN AIR FORCE BASE
NAS    - NAVAL AIR STATION
         EL CENTRO NAS IS EL CENTRO NAVAL AIR STATION
N/A    - NOT AVAILABLE


USA.gov is the U.S. government's official web portal to all federal, state and local government web resources and services.